Regional Weather Roundup
Issued by NWS

Home | Current Version | Previous Version | Graphics & Text | Print | Product List | Glossary On
Versions: 1 2 3 4 5 6 7 8 9 10 11 12 13 14 15 16 17 18 19 20 21 22 23 24 25 26 27 28 29 30 31 32 33 34 35 36 37 38 39 40 41 42 43 44 45 46 47 48 49 50
000
ASUS43 KLMK 250510
RWRKY
KENTUCKY REGIONAL WEATHER ROUNDUP
NATIONAL WEATHER SERVICE LOUISVILLE KY
1200 AM EST SUN JAN 25 2015

NOTE "FAIR" INDICATES FEW OR NO CLOUDS BELOW 12,000 FEET
WITH NO SIGNIFICANT WEATHER AND/OR OBSTRUCTIONS TO VISIBILITY.

KYZ001>023-026-027-061>063-070>075-250600-
WESTERN AND SOUTH CENTRAL KENTUCKY

CITY           SKY/WX    TMP DP  RH WIND       PRES   REMARKS
PADUCAH        PTCLDY    44  31  60 SW10      29.82F
HENDERSON      MOCLDY    41  30  65 SW10      29.80S
OWENSBORO      PTCLDY    36  31  82 S7        29.82S WCI  30
HOPKINSVILLE   CLEAR     37  29  71 SW10      29.86S WCI  30
BOWLING GREEN  MOCLDY    37  29  72 CALM      29.86F
GLASGOW        CLEAR     35  30  81 CALM      29.87S
$$

KYZ024-025-028>034-038-045-046-053-250600-
NORTH CENTRAL KENTUCKY

CITY           SKY/WX    TMP DP  RH WIND       PRES   REMARKS
LOUISVILLE/SDF CLOUDY    37  30  75 SE3       29.81F
LOUISVILLE/LOU PTCLDY    36  30  79 S3        29.82S
FORT KNOX      PTCLDY    35  30  82 S6        29.80F WCI  30
$$

KYZ035>037-039>044-047>052-055>060-089>105-250600-
NORTHEAST KENTUCKY

CITY           SKY/WX    TMP DP  RH WIND       PRES   REMARKS
LEXINGTON      CLEAR     33  28  81 S9        29.83R WCI  25
COVINGTON      MOCLDY    33  28  81 S8        29.77F WCI  26
FRANKFORT      CLEAR     32  28  85 S7        29.81S WCI  26
$$

KYZ054-064>069-076>088-106>120-250600-
SOUTHEAST KENTUCKY

CITY           SKY/WX    TMP DP  RH WIND       PRES   REMARKS
JACKSON        CLEAR     33  30  88 SW6       29.84F WCI  28
LONDON         CLEAR     30  25  81 CALM      29.87S
SOMERSET       CLEAR     32  32 100 CALM      29.89S
MIDDLESBORO    CLEAR     28  27  97 CALM      29.91S
MONTICELLO     CLEAR     36  31  82 SW8       29.91S WCI  30
$$




USA.gov is the U.S. government's official web portal to all federal, state and local government web resources and services.